International Skating Union - Official Site

Essent ISU World Cup Berlin
November 19-21, 2010

Draw | Lap Times | Index | World Cup

Referee: Daniel  CABELDUC  (SWE)
Starter: Ole Herman  SÖRLI  (NOR)
StartTime: EndTime: Air Temp: Ice Temp: Humidity:
14:30 14:56 13.9 ℃ -5.4 ℃ 30.4%
Result Team Pursuit Ladies
Rankings as of Jun 22 2010 1:26AM
Rank: No.: Team: Nation: Time: Behind: Points:
Total 10
1 138 Germany (177) Isabell OST (178) Jennifer BAY (179) Stephanie BECKERT GER GER 3:04.910.5 - 19.00 - (19.0)
1.0 - 33.69 - (14.6)
1.5 - 48.30 - (14.6)
2.0 - 1:02.93 - (14.6)
2.5 - 1:17.65 - (14.7)
3.0 - 1:32.23 - (14.5)
3.5 - 1:47.60 - (15.3)
4.0 - 2:03.29 - (15.6)
4.5 - 2:18.40 - (15.1)
5.0 - 2:33.76 - (15.3)
5.5 - 2:49.30 - (15.5)
6.0 - 3:04.91 - (15.6)
100
2 140 Netherlands (214) Ireen WÜST (218) Jorien VOORHUIS (219) Marije JOLING NED NED 3:05.500.5 - 18.15 - (18.1)
1.0 - 32.50 - (14.3)
1.5 - 46.80 - (14.3)
2.0 - 1:01.14 - (14.3)
2.5 - 1:15.70 - (14.5)
3.0 - 1:30.41 - (14.7)
3.5 - 1:45.50 - (15.0)
4.0 - 2:01.17 - (15.6)
4.5 - 2:16.80 - (15.6)
5.0 - 2:32.74 - (15.9)
5.5 - 2:49.00 - (16.2)
6.0 - 3:05.50 - (16.5)
0.59 80
3 145 Norway (223) Ida NJÅTUN (224) Hege BØKKO (226) Mari HEMMER NOR NOR 3:06.670.5 - 18.50 - (18.5)
1.0 - 33.70 - (15.2)
1.5 - 48.04 - (14.3)
2.0 - 1:02.44 - (14.4)
2.5 - 1:17.80 - (15.3)
3.0 - 1:33.10 - (15.3)
3.5 - 1:48.60 - (15.5)
4.0 - 2:04.72 - (16.1)
4.5 - 2:20.30 - (15.5)
5.0 - 2:35.99 - (15.6)
5.5 - 2:51.20 - (15.2)
6.0 - 3:06.67 - (15.4)
1.76 70
4 141 Korea (200) Ju-Youn LEE (203) Seon-Yeong NOH (204) Do-Yeong PARK KOR KOR 3:07.080.5 - 18.30 - (18.3)
1.0 - 32.58 - (14.2)
1.5 - 46.99 - (14.4)
2.0 - 1:01.50 - (14.5)
2.5 - 1:16.00 - (14.5)
3.0 - 1:30.71 - (14.7)
3.5 - 1:45.70 - (14.9)
4.0 - 2:00.90 - (15.2)
4.5 - 2:16.70 - (15.7)
5.0 - 2:33.16 - (16.4)
5.5 - 2:50.00 - (16.8)
6.0 - 3:07.08 - (17.0)
2.17 60
5 137 Russia (233) Yekaterina SHIKHOVA (234) Yekaterina LOBYSHEVA (238) Yuliya SKOKOVA RUS RUS 3:07.210.5 - 19.10 - (19.1)
1.0 - 33.15 - (14.0)
1.5 - 48.00 - (14.8)
2.0 - 1:03.02 - (15.0)
2.5 - 1:18.10 - (15.0)
3.0 - 1:33.24 - (15.1)
3.5 - 1:48.75 - (15.5)
4.0 - 2:04.02 - (15.2)
4.5 - 2:19.50 - (15.4)
5.0 - 2:35.29 - (15.7)
5.5 - 2:51.15 - (15.8)
6.0 - 3:07.21 - (16.0)
2.30 50
6 143 China (165) Fei WANG (166) Jia JI (167) Chunyan FU CHN CHN 3:07.930.5 - 18.40 - (18.3)
1.0 - 33.34 - (14.9)
1.5 - 48.30 - (14.9)
2.0 - 1:02.98 - (14.6)
2.5 - 1:17.90 - (14.9)
3.0 - 1:32.84 - (14.9)
3.5 - 1:48.25 - (15.4)
4.0 - 2:03.66 - (15.4)
4.5 - 2:19.55 - (15.8)
5.0 - 2:35.51 - (15.9)
5.5 - 2:51.65 - (16.1)
6.0 - 3:07.93 - (16.2)
3.02 45
7 144 Poland (228) Luiza ZLOTKOWSKA (229) Natalia CZERWONKA (231) Karolina DOMANSKA-KSYT POL POL 3:10.570.5 - 19.00 - (19.0)
1.0 - 34.29 - (15.2)
1.5 - 49.25 - (14.9)
2.0 - 1:04.29 - (15.0)
2.5 - 1:19.30 - (15.0)
3.0 - 1:34.56 - (15.2)
3.5 - 1:50.50 - (15.9)
4.0 - 2:06.29 - (15.7)
4.5 - 2:22.10 - (15.8)
5.0 - 2:37.90 - (15.8)
5.5 - 2:54.10 - (16.2)
6.0 - 3:10.57 - (16.4)
5.66 40
8 142 USA (243) Heather RICHARDSON (245) Rebekah BRADFORD (246) Jilleanne ROOKARD USA USA 3:15.530.5 - 18.90 - (18.8)
1.0 - 33.96 - (15.0)
1.5 - 49.35 - (15.3)
2.0 - 1:04.74 - (15.3)
2.5 - 1:20.50 - (15.7)
3.0 - 1:36.20 - (15.7)
3.5 - 1:51.99 - (15.7)
4.0 - 2:07.93 - (15.9)
4.5 - 2:24.60 - (16.6)
5.0 - 2:41.12 - (16.5)
5.5 - 2:58.30 - (17.1)
6.0 - 3:15.53 - (17.2)
10.62 36
9 139 Japan (186) Nao KODAIRA (191) Miho TAKAGI (192) Masako HOZUMI JPN JPN 3:43.290.5 - 18.80 - (18.8)
1.0 - 33.12 - (14.3)
1.5 - 48.00 - (14.8)
2.0 - 1:15.10 - (27.0)
2.5 - 1:32.00 - (16.9)
3.0 - 1:48.60 - (16.6)
3.5 - 2:07.00 - (18.4)
4.0 - 2:26.91 - (19.9)
4.5 - 2:45.40 - (18.4)
5.0 - 3:03.96 - (18.5)
5.5 - 3:23.00 - (19.0)
6.0 - 3:43.29 - (20.2)
38.38 32
10 136 Canada (154) Kristina GROVES (159) Cindy KLASSEN (156) Brittany SCHUSSLER CAN CAN DNF0.5 - 18.90 - (18.8)
1.0 - 32.40 - (13.5)
1.5 - 46.60 - (14.2)
2.0 - 1:01.23 - (14.6)
0